Location: Tel Aviv
(32.0670°N, 34.7670°E)
Time: 07:39:14
(UTC+02:00)

Transit 4A - All Passes

Search period start: 29 November 2023 00:00
Search period end: 09 December 2023 00:00
Orbit: 864 x 979 km, 66.8° (Epoch: 28 November)

Date Brightness Start Highest point End Pass type
(mag) Time Alt. Az. Time Alt. Az. Time Alt. Az.
29 Nov - 05:52:41 10° N 05:58:22 40° ENE 06:03:52 10° SE visible
29 Nov - 07:39:38 10° NW 07:44:23 25° WSW 07:49:01 10° SSW daylight
29 Nov - 19:09:47 10° SE 19:13:55 18° ESE 19:18:03 10° ENE night (unlit)
29 Nov - 20:53:24 10° SW 20:59:42 60° WNW 21:06:01 10° NNE night (unlit)
30 Nov - 06:01:34 10° NNW 06:07:35 62° ENE 06:13:22 10° SE daylight
30 Nov - 07:49:58 10° WNW 07:53:13 15° WSW 07:56:26 10° SW daylight
30 Nov - 19:17:28 10° SSE 19:22:48 29° ESE 19:28:08 10° NE visible
30 Nov - 21:02:58 10° SW 21:08:54 40° WNW 21:14:53 10° N night (unlit)
01 Dec - 04:26:38 10° NNE 04:29:34 14° NE 04:32:29 10° ENE visible
01 Dec - 06:10:37 10° NNW 06:16:41 85° WSW 06:22:33 10° SSE daylight
01 Dec - 19:25:45 10° S 19:31:45 44° ESE 19:37:45 10° NE visible
01 Dec - 21:12:53 10° WSW 21:18:13 27° NW 21:23:32 10° N night (unlit)
02 Dec - 04:34:38 10° N 04:39:02 20° NE 04:43:21 10° E visible
02 Dec - 06:19:51 10° NW 06:25:43 54° WSW 06:31:23 10° S daylight
02 Dec - 19:34:25 10° SSW 19:40:45 69° ESE 19:47:06 10° NNE visible
02 Dec - 21:23:18 10° W 21:27:37 19° NW 21:31:56 10° N night (unlit)
03 Dec - 04:43:07 10° N 04:48:24 30° ENE 04:53:31 10° ESE visible
03 Dec - 06:29:20 10° NW 06:34:40 34° WSW 06:39:51 10° S daylight
03 Dec - 18:01:38 10° SE 18:04:17 13° ESE 18:06:54 10° ENE visible
03 Dec - 19:43:26 10° SSW 19:49:50 80° WNW 19:56:14 10° NNE visible
03 Dec - 21:34:33 10° WNW 21:37:08 12° NW 21:39:41 10° NNW night (unlit)
04 Dec - 04:51:52 10° NNW 04:57:40 46° ENE 05:03:16 10° SE visible
04 Dec - 06:39:12 10° WNW 06:43:33 21° WSW 06:47:49 10° SSW daylight
04 Dec - 18:08:31 10° SSE 18:13:06 21° ESE 18:17:42 10° ENE visible
04 Dec - 19:52:47 10° SW 19:59:00 53° WNW 20:05:13 10° NNE visible
05 Dec - 03:19:13 10° NE 03:19:24 10° NE 03:19:35 10° NE visible
05 Dec - 05:00:48 10° NNW 05:06:50 71° ENE 05:12:40 10° SSE visible
05 Dec - 06:49:57 10° WNW 06:52:22 13° WSW 06:54:46 10° SW daylight
05 Dec - 18:16:25 10° S 18:22:00 33° ESE 18:27:36 10° NE visible
05 Dec - 20:02:27 10° WSW 20:08:14 35° WNW 20:14:01 10° N visible
06 Dec - 03:25:28 10° NNE 03:28:57 16° NE 03:32:22 10° E visible
06 Dec - 05:09:54 10° NNW 05:15:55 75° WSW 05:21:44 10° SSE visible
06 Dec - 18:24:50 10° S 18:30:58 51° ESE 18:37:07 10° NE visible
06 Dec - 20:12:31 10° WSW 20:17:34 24° NW 20:22:37 10° N visible
07 Dec - 03:33:40 10° N 03:38:23 23° NE 03:42:58 10° ESE visible
07 Dec - 05:19:13 10° NW 05:24:54 47° WSW 05:30:28 10° S visible
07 Dec - 18:33:37 10° SSW 18:40:00 79° ESE 18:46:23 10° NNE visible
07 Dec - 20:23:07 10° W 20:27:00 16° NW 20:30:52 10° NNW visible
08 Dec - 03:42:15 10° N 03:47:42 34° ENE 03:53:00 10° ESE visible
08 Dec - 05:28:46 10° NW 05:33:51 29° WSW 05:38:47 10° SSW visible
08 Dec - 17:00:00 10° SE 17:03:26 15° ESE 17:06:53 10° ENE visible
08 Dec - 18:42:44 10° SSW 18:49:06 70° WNW 18:55:28 10° NNE visible
08 Dec - 20:35:02 10° WNW 20:36:32 11° NW 20:38:02 10° NNW visible
